TimeEST,TemperatureF,Dew PointF,Humidity,Sea Level PressureIn,VisibilityMPH,Wind Direction,Wind SpeedMPH,Gust SpeedMPH,PrecipitationIn,Events,Conditions,WindDirDegrees,DateUTC
12:55 AM,6.8,-0.4,72,30.32,15.0,WNW,9.2,-,N/A,,Clear,290,2009-02-06 05:55:00
1:55 AM,6.8,-0.4,72,30.34,15.0,West,10.4,-,N/A,,Clear,280,2009-02-06 06:55:00
2:55 AM,6.8,-0.4,72,30.33,15.0,West,6.9,-,N/A,,Partly Cloudy,280,2009-02-06 07:55:00
3:55 AM,5.0,-0.4,78,30.34,15.0,West,6.9,-,N/A,,Partly Cloudy,280,2009-02-06 08:55:00
4:55 AM,5.0,-0.4,78,30.34,15.0,WNW,2.3,-,N/A,,Partly Cloudy,300,2009-02-06 09:55:00
5:55 AM,5.0,-0.4,78,30.36,15.0,Calm,Calm,-,N/A,,Scattered Clouds,0,2009-02-06 10:55:00
6:55 AM,5.0,-0.4,78,30.37,15.0,Calm,Calm,-,N/A,,Mostly Cloudy,0,2009-02-06 11:55:00
7:55 AM,8.6,1.4,73,30.37,15.0,West,5.8,-,N/A,,Overcast,270,2009-02-06 12:55:00
8:55 AM,10.4,1.4,67,30.39,15.0,West,10.4,-,N/A,,Mostly Cloudy,280,2009-02-06 13:55:00
9:55 AM,12.2,3.2,67,30.39,15.0,West,5.8,-,N/A,,Mostly Cloudy,270,2009-02-06 14:55:00
10:55 AM,14.0,5.0,67,30.39,15.0,West,5.8,-,N/A,,Mostly Cloudy,280,2009-02-06 15:55:00
11:55 AM,19.4,6.8,58,30.36,15.0,West,10.4,-,N/A,,Scattered Clouds,270,2009-02-06 16:55:00
12:55 PM,21.2,8.6,58,30.32,15.0,WSW,9.2,-,N/A,,Partly Cloudy,250,2009-02-06 17:55:00
1:55 PM,23.0,8.6,54,30.32,15.0,WSW,13.8,-,N/A,,Partly Cloudy,250,2009-02-06 18:55:00
2:55 PM,23.0,12.2,63,30.33,15.0,SW,12.7,-,N/A,,Scattered Clouds,230,2009-02-06 19:55:00
3:55 PM,23.0,12.2,63,30.33,15.0,SW,15.0,-,N/A,,Partly Cloudy,220,2009-02-06 20:55:00
4:55 PM,21.2,14.0,74,30.32,15.0,SW,8.1,-,N/A,,Partly Cloudy,230,2009-02-06 21:55:00
5:55 PM,21.2,12.2,68,30.33,15.0,WSW,9.2,-,N/A,,Partly Cloudy,240,2009-02-06 22:55:00
6:55 PM,21.2,12.2,68,30.35,15.0,WNW,3.5,-,N/A,,Clear,290,2009-02-06 23:55:00
7:55 PM,19.4,12.2,74,30.37,15.0,West,5.8,-,N/A,,Clear,260,2009-02-07 00:55:00
8:55 PM,17.6,10.4,73,30.38,15.0,South,3.5,-,N/A,,Clear,190,2009-02-07 01:55:00
9:55 PM,17.6,10.4,73,30.39,15.0,West,3.5,-,N/A,,Clear,270,2009-02-07 02:55:00
10:55 PM,15.8,10.4,79,30.40,15.0,West,5.8,-,N/A,,Clear,260,2009-02-07 03:55:00
11:55 PM,17.6,10.4,73,30.40,15.0,West,4.6,-,N/A,,Clear,260,2009-02-07 04:55:00